Location: Bruderhein
(53.8035°N, 112.9265°W)
Time: 10:06:53
(UTC+00:00)

KKS-1 - Pass Details

Date: 10 April 2023
Orbit: 633 x 644 km, 98.2° (Epoch: 29 May)

Event Time Altitude Azimuth Distance (km) Brightness Sun altitude
Rises 06:17:41 0° 15° (NNE) 2,945 ? -26.3°
Reaches altitude 10° 06:19:54 10° 17° (NNE) 2,033 ? -26.4°
Enters shadow 06:23:27 56° 30° (NNE) 760 ? -26.6°
